This is the latest recevied weather packets stored in our database for station/object DG7FDL-7. If no packets are shown the sender has not sent any weather packets the latest 10 day(s).
| Time | Temp. | Humidity | Pressure | Rain* | Wind** | Luminosity | Snow |
|---|---|---|---|---|---|---|---|
| 1777998190 | 23.89° C | 47% | 1007.6 hPa | - | - | - | - |
| 1777997285 | 23.89° C | 47% | 1007.6 hPa | - | - | - | - |
| 1777996390 | 23.89° C | 46% | 1007.7 hPa | - | - | - | - |
| 1777995490 | 23.33° C | 48% | 1007.7 hPa | - | - | - | - |
| 1777994600 | 23.89° C | 46% | 1007.7 hPa | - | - | - | - |
| 1777993690 | 24.44° C | 45% | 1007.7 hPa | - | - | - | - |
| 1777992784 | 23.89° C | 45% | 1007.7 hPa | - | - | - | - |
| 1777991884 | 24.44° C | 44% | 1007.9 hPa | - | - | - | - |
| 1777990983 | 24.44° C | 44% | 1008 hPa | - | - | - | - |
| 1777989199 | 24.44° C | 45% | 1008.3 hPa | - | - | - | - |
| 1777988284 | 24.44° C | 45% | 1008.4 hPa | - | - | - | - |
| 1777987382 | 23.89° C | 47% | 1008.5 hPa | - | - | - | - |
| 1777986479 | 23.89° C | 46% | 1008.6 hPa | - | - | - | - |
| 1777985579 | 23.33° C | 45% | 1008.6 hPa | - | - | - | - |
| 1777984680 | 23.33° C | 45% | 1008.8 hPa | - | - | - | - |
| 1777983779 | 23.89° C | 46% | 1008.9 hPa | - | - | - | - |
| 1777982879 | 23.89° C | 46% | 1008.9 hPa | - | - | - | - |
| 1777981979 | 23.89° C | 46% | 1009 hPa | - | - | - | - |
| 1777981079 | 23.89° C | 48% | 1009.3 hPa | - | - | - | - |
| 1777980178 | 23.89° C | 47% | 1009.3 hPa | - | - | - | - |
| 1777979278 | 23.33° C | 47% | 1009.5 hPa | - | - | - | - |
| 1777978378 | 22.78° C | 48% | 1009.7 hPa | - | - | - | - |
| 1777977479 | 22.78° C | 48% | 1009.8 hPa | - | - | - | - |
| 1777976580 | 22.22° C | 49% | 1010 hPa | - | - | - | - |
| 1777975681 | 22.22° C | 49% | 1010.2 hPa | - | - | - | - |
* Rain since midnight (hover to see other rain measurements)
** Current wind speed in m/s (hover to see current wind gust speed)